DELTA 1 DEB, 14497

Orbit data source: Space-Track

DELTA 1 DEB, 14497 is space debris in LEO originally from a launch on Thu, 14 Jul 1977 UTC launched from the Air Force Eastern Test Range (AFETR). Debris objects in space refer to the collection of defunct objects orbiting the Earth. Examples of debris include non-operational satellites, rocket bodies, and fragments generated from explosions, collisions, or faulty payload assembly.

Loading next visibility...
Identifier
14497, 1977-065FN
Orbit
LEO
Country
Flag of USUS
Related business
Manufacturer
Unknown
Mission
Spacecraft
Bus & Motor
Unknown
Mass
Unknown
Launch date (UTC)
1977-07-14 (49 years ago)
Launch vehicle
Unknown
Launch site
Air Force Eastern Test Range (AFETR)
Object type
Payload
Rocket body
Debris
Shape & HBR
Unknown shape, 0.1 m
Radar Cross Section
Medium (>0.1 m² and <1 m²)

Expand to show TLE details & history
Last TLE update: 4 hours ago

TLE from 4 hours ago
0 DELTA 1 DEB
1 14497U 77065FN  26133.49204161  .00001241  00000-0  41559-2 0  9996
2 14497  29.2936 185.5888 0871337 240.5552 261.5127 12.07942938976846
Epoch: 2026-05-13T11:48Z
TLE epoch observation values (Epoch: 2026-05-13T11:48:32.395Z)
Latitude
21.26323°
Longitude
-86.45678°
Altitude
1,805.117 km
Speed
6.913 km/s
True Right ascension
21h 27m 43s
True Declination
21° 09' 44"
Sunlit
Object was in daylight at epoch
Visualization orbit readout
Latitude
Unknown
Longitude
Unknown
Altitude
Unknown
Speed
Unknown
Apparent Right ascension
Unknown
Apparent Declination
Unknown
Sunlit
N/A
Visualization observer readout
Local Sidereal Time
00:17:48
Azimuth
Unknown
Elevation
Unknown
Doppler factor
Unknown
Orbital elements
Apogee altitude
2,348.497 km
Perigee altitude
949.618 km
Semi-major axis
8,027.194 km
Eccentricity
0.08713
Inclination
29.2936°
RAAN
185.5888°
Arg. of periapsis
240.5552°
True anomaly
251.83964°
Mean anomaly
261.5127°
Eccentric anomaly
256.65511°
Mean motion
3.01785 °/min
Orbital period
119.29 mins
BSTAR
0.0041559
Loading maneuver chart data...
Computing Atmospheric mass density...
Loading historical data...
Loading historical data...
Loading historical data...
Loading historical data...
Loading historical data...
Loading historical data...
Loading historical data...

Documentation

Showing up to 5 results
|